Aeroporto :
LOGIN :

Iscrizione | Disclaimer

   EN    FR    IT 

 










Sommario :    VFR   VFR Marginale   IFR   IFR Intensivo   IFR Molto Intensivo
Visibilità : 
Base nubi : 
>= 8 km
>= 3000ft
5 / 8 km
1000 / 3000 ft
1500m / 5 km
500 / 1000 ft
800 / 1500m
200 / 500 ft
< 800m
< 200 ft
Simboli :   Temporali  Nebbia  Neve Forte  Precipitazioni Forti  Vento > 20 kt
SIGMETs :   Varie  Temporali  Ghiacco  Turbolenza  Onda orograficha  Ceneri Vulcaniche







- Altitudine del aeroporto : 296 ft
- Codice IATA : GKE


ETNG - Geilenkirchen

ULTIMO METAR :
  • 270450Z 28003KT 7000 -RADZ FEW005 BKN027 12/12 Q1010 BECMG NSW

METARs OBSOLETI :
  • 270350Z 31008G18KT 4000 -DZRA FEW005 SCT014 BKN029 12/12 Q1010
  • 270250Z 25009KT 6000 -DZRA SCT005 BKN014 14/13 Q1009

TAF TAF ETNG
Valido dal 27 a 03 ore il 27 a 18 ore UTC


270200Z 2703/2718 25010KT 5000 -RADZ BKN010
TEMPO 2703/2706 3000 DZRA BKN004
BECMG 2706/2708 27006KT 9999 NSW SCT025
Nessun NOTAM noto per questo aeroporto.



MetMap, La meteo Aeronautica in un colpo d'occhio ! - Copyright ORBIFLY Dicembre 2007 - Disclaimer

ORBIFLY MET'MAP TEAM :

Programmazione e sviluppo : Alexandra Zaïnal
Concezione e sviluppo : Baudouin d'Aumeries
Co-Programmazione e sviluppo : Marc-Olivier Méhu
Supporto tecnico e logistico : Manuel Goepfert
Aiuto per la traduzione : Arnaldo La Scala

Contatto : metmap@orbifly.com




FONTI E CREDITI :

   NOAA